| time (UTC) | temp F | wind direction | speed MPH | gust MPH | rain 1hr in | rain 24hr in | rain mn in | humidity % | barometer mb |
| 20260510053717 | 85 | 231 | 2.0 | 2.0 | 0.00 | 0.00 | 0.00 | 20 | 1006.4 |
| 20260510051716 | 84 | 145 | 2.0 | 3.0 | 0.00 | 0.00 | 0.00 | 20 | 1006.1 |
| 20260510050717 | 85 | 148 | 4.0 | 5.0 | 0.00 | 0.00 | 0.00 | 20 | 1005.9 |
| 20260510045716 | 85 | 158 | 4.0 | 5.0 | 0.00 | 0.00 | 0.00 | 20 | 1005.7 |
| 20260510044717 | 86 | 175 | 4.0 | 5.0 | 0.00 | 0.00 | 0.00 | 18 | 1005.5 |
| 20260510043716 | 86 | 158 | 3.0 | 4.0 | 0.00 | 0.00 | 0.00 | 17 | 1005.4 |
| 20260510042717 | 86 | 170 | 4.0 | 6.0 | 0.00 | 0.00 | 0.00 | 17 | 1005.3 |
| 20260510041716 | 87 | 193 | 2.0 | 6.0 | 0.00 | 0.00 | 0.00 | 15 | 1005.2 |
| 20260510040717 | 88 | 191 | 4.0 | 5.0 | 0.00 | 0.00 | 0.00 | 13 | 1005.1 |
| 20260510035717 | 89 | 196 | 2.0 | 3.0 | 0.00 | 0.00 | 0.00 | 13 | 1004.9 |
| 20260510033717 | 90 | 213 | 4.0 | 7.0 | 0.00 | 0.00 | 0.00 | 12 | 1004.6 |
| 20260510032716 | 91 | 216 | 3.0 | 5.0 | 0.00 | 0.00 | 0.00 | 12 | 1004.4 |
| 20260510031717 | 91 | 219 | 3.0 | 4.0 | 0.00 | 0.00 | 0.00 | 13 | 1004.3 |
| 20260510030716 | 92 | 222 | 3.0 | 5.0 | 0.00 | 0.00 | 0.00 | 14 | 1004.1 |
| 20260510025717 | 93 | 222 | 4.0 | 5.0 | 0.00 | 0.00 | 0.00 | 14 | 1003.9 |
| 20260510024717 | 93 | 222 | 3.0 | 4.0 | 0.00 | 0.00 | 0.00 | 16 | 1003.9 |
| 20260510023716 | 95 | 210 | 3.0 | 4.0 | 0.00 | 0.00 | 0.00 | 16 | 1003.8 |
| 20260510022717 | 97 | 238 | 4.0 | 5.0 | 0.00 | 0.00 | 0.00 | 14 | 1003.6 |
| 20260510021717 | 98 | 245 | 4.0 | 6.0 | 0.00 | 0.00 | 0.00 | 13 | 1003.6 |
| 20260510020716 | 99 | 253 | 5.0 | 6.0 | 0.00 | 0.00 | 0.00 | 13 | 1003.6 |
| 20260510015717 | 100 | 253 | 6.0 | 8.0 | 0.00 | 0.00 | 0.00 | 13 | 1003.5 |
| 20260510014717 | 101 | 246 | 5.0 | 7.0 | 0.00 | 0.00 | 0.00 | 14 | 1003.4 |
| 20260510013716 | 101 | 248 | 6.0 | 7.0 | 0.00 | 0.00 | 0.00 | 13 | 1003.3 |
| 20260510012717 | 102 | 256 | 6.0 | 7.0 | 0.00 | 0.00 | 0.00 | 12 | 1003.3 |
| 20260510011716 | 103 | 261 | 7.0 | 9.0 | 0.00 | 0.00 | 0.00 | 12 | 1003.3 |
| 20260510010717 | 103 | 252 | 7.0 | 10.0 | 0.00 | 0.00 | 0.00 | 12 | 1003.3 |
| 20260510005716 | 104 | 258 | 6.0 | 9.0 | 0.00 | 0.00 | 0.00 | 11 | 1003.3 |
| 20260510004716 | 105 | 251 | 9.0 | 12.0 | 0.00 | 0.00 | 0.00 | 11 | 1003.2 |
| 20260510003717 | 105 | 261 | 6.0 | 7.0 | 0.00 | 0.00 | 0.00 | 10 | 1003.2 |
| 20260510002716 | 105 | 266 | 5.0 | 7.0 | 0.00 | 0.00 | 0.00 | 9 | 1003.2 |
| 20260510001717 | 105 | 253 | 6.0 | 7.0 | 0.00 | 0.00 | 0.00 | 9 | 1003.3 |
| 20260510000716 | 105 | 259 | 5.0 | 7.0 | 0.00 | 0.00 | 0.00 | 9 | 1003.4 |
| 20260509235717 | 106 | 252 | 6.0 | 8.0 | 0.00 | 0.00 | 0.00 | 9 | 1003.3 |
| 20260509234717 | 106 | 228 | 9.0 | 11.0 | 0.00 | 0.00 | 0.00 | 9 | 1003.4 |
| 20260509233716 | 107 | 236 | 6.0 | 8.0 | 0.00 | 0.00 | 0.00 | 8 | 1003.5 |
| 20260509232716 | 107 | 229 | 7.0 | 9.0 | 0.00 | 0.00 | 0.00 | 8 | 1003.5 |
| 20260509231717 | 106 | 225 | 5.0 | 6.0 | 0.00 | 0.00 | 0.00 | 8 | 1003.6 |
| 20260509231017 | 106 | 239 | 4.0 | 5.0 | 0.00 | 0.00 | 0.00 | 8 | 1003.7 |
| 20260509230517 | 107 | 226 | 7.0 | 8.0 | 0.00 | 0.00 | 0.00 | 8 | 1003.7 |
| 20260509225516 | 106 | 219 | 6.0 | 7.0 | 0.00 | 0.00 | 0.00 | 8 | 1003.9 |
| 20260509224517 | 107 | 228 | 5.0 | 6.0 | 0.00 | 0.00 | 0.00 | 8 | 1004.0 |
| 20260509222517 | 106 | 246 | 5.0 | 9.0 | 0.00 | 0.00 | 0.00 | 9 | 1004.3 |
| 20260509221517 | 106 | 251 | 7.0 | 10.0 | 0.00 | 0.00 | 0.00 | 8 | 1004.3 |
| 20260509220517 | 105 | 165 | 4.0 | 7.0 | 0.00 | 0.00 | 0.00 | 9 | 1004.6 |
| 20260509215517 | 104 | 233 | 2.0 | 3.0 | 0.00 | 0.00 | 0.00 | 10 | 1004.8 |
| 20260509214517 | 104 | 293 | 8.0 | 10.0 | 0.00 | 0.00 | 0.00 | 10 | 1004.9 |
| 20260509214217 | 104 | 295 | 7.0 | 9.0 | 0.00 | 0.00 | 0.00 | 10 | 1005.0 |
| 20260509213217 | 104 | 196 | 5.0 | 7.0 | 0.00 | 0.00 | 0.00 | 11 | 1005.2 |
| 20260509212217 | 105 | 215 | 4.0 | 6.0 | 0.00 | 0.00 | 0.00 | 10 | 1005.4 |
| 20260509211217 | 103 | 247 | 7.0 | 8.0 | 0.00 | 0.00 | 0.00 | 9 | 1005.7 |
| 20260509210216 | 104 | 232 | 7.0 | 9.0 | 0.00 | 0.00 | 0.00 | 9 | 1005.8 |
| 20260509204217 | 104 | 227 | 5.0 | 9.0 | 0.00 | 0.00 | 0.00 | 9 | 1006.1 |
| 20260509203216 | 103 | 183 | 4.0 | 6.0 | 0.00 | 0.00 | 0.00 | 12 | 1006.3 |
| 20260509202217 | 103 | 227 | 6.0 | 8.0 | 0.00 | 0.00 | 0.00 | 10 | 1006.4 |
| 20260509201217 | 100 | 288 | 3.0 | 3.0 | 0.00 | 0.00 | 0.00 | 10 | 1006.5 |
| 20260509201017 | 100 | 106 | 1.0 | 2.0 | 0.00 | 0.00 | 0.00 | 11 | 1006.5 |
| 20260509200017 | 100 | 267 | 4.0 | 7.0 | 0.00 | 0.00 | 0.00 | 10 | 1006.8 |
| 20260509195016 | 101 | 222 | 6.0 | 7.0 | 0.00 | 0.00 | 0.00 | 9 | 1006.9 |
| 20260509194017 | 99 | 304 | 4.0 | 6.0 | 0.00 | 0.00 | 0.00 | 9 | 1007.0 |
| 20260509193017 | 100 | 241 | 6.0 | 7.0 | 0.00 | 0.00 | 0.00 | 9 | 1007.2 |
| 20260509192018 | 99 | 263 | 6.0 | 8.0 | 0.00 | 0.00 | 0.00 | 10 | 1007.3 |
| 20260509191016 | 98 | 274 | 4.0 | 6.0 | 0.00 | 0.00 | 0.00 | 11 | 1007.3 |
| 20260509190017 | 99 | 253 | 4.0 | 5.0 | 0.00 | 0.00 | 0.00 | 8 | 1007.5 |
| 20260509185016 | 99 | 260 | 5.0 | 7.0 | 0.00 | 0.00 | 0.00 | 9 | 1007.6 |
| 20260509184017 | 97 | 321 | 5.0 | 7.0 | 0.00 | 0.00 | 0.00 | 9 | 1007.6 |
| 20260509183017 | 97 | 244 | 3.0 | 6.0 | 0.00 | 0.00 | 0.00 | 10 | 1007.7 |
| 20260509182017 | 97 | 248 | 5.0 | 8.0 | 0.00 | 0.00 | 0.00 | 12 | 1007.8 |
| 20260509181017 | 96 | 274 | 2.0 | 4.0 | 0.00 | 0.00 | 0.00 | 14 | 1007.8 |
| 20260509180017 | 95 | 247 | 2.0 | 4.0 | 0.00 | 0.00 | 0.00 | 15 | 1007.9 |
| 20260509175817 | 95 | 264 | 4.0 | 5.0 | 0.00 | 0.00 | 0.00 | 15 | 1007.9 |
| 20260509174816 | 95 | 234 | 6.0 | 8.0 | 0.00 | 0.00 | 0.00 | 14 | 1008.0 |
| 20260509173817 | 94 | 266 | 4.0 | 7.0 | 0.00 | 0.00 | 0.00 | 15 | 1008.1 |
| 20260509172817 | 94 | 238 | 3.0 | 6.0 | 0.00 | 0.00 | 0.00 | 14 | 1008.1 |
| 20260509171816 | 94 | 280 | 3.0 | 6.0 | 0.00 | 0.00 | 0.00 | 15 | 1008.2 |
| 20260509170817 | 93 | 244 | 4.0 | 5.0 | 0.00 | 0.00 | 0.00 | 16 | 1008.2 |
| 20260509165817 | 93 | 273 | 1.0 | 4.0 | 0.00 | 0.00 | 0.00 | 15 | 1008.1 |
| 20260509165217 | 93 | 262 | 2.0 | 4.0 | 0.00 | 0.00 | 0.00 | 15 | 1008.1 |
| 20260509164216 | 92 | 287 | 3.0 | 6.0 | 0.00 | 0.00 | 0.00 | 15 | 1008.2 |
| 20260509163217 | 91 | 319 | 2.0 | 5.0 | 0.00 | 0.00 | 0.00 | 14 | 1008.2 |
| 20260509162216 | 91 | 339 | 3.0 | 5.0 | 0.00 | 0.00 | 0.00 | 14 | 1008.2 |
| 20260509161217 | 90 | 266 | 0.0 | 1.0 | 0.00 | 0.00 | 0.00 | 18 | 1008.1 |
| 20260509160217 | 88 | 0.0 | 0.0 | 0.00 | 0.00 | 0.00 | 19 | 1008.2 | |
| 20260509155217 | 88 | 0.0 | 0.0 | 0.00 | 0.00 | 0.00 | 19 | 1008.2 | |
| 20260509154217 | 87 | 253 | 0.0 | 0.0 | 0.00 | 0.00 | 0.00 | 19 | 1008.2 |
| 20260509153917 | 86 | 0.0 | 0.0 | 0.00 | 0.00 | 0.00 | 19 | 1008.2 | |
| 20260509152917 | 85 | 0.0 | 0.0 | 0.00 | 0.00 | 0.00 | 20 | 1008.2 | |
| 20260509151917 | 84 | 0.0 | 0.0 | 0.00 | 0.00 | 0.00 | 21 | 1008.2 | |
| 20260509150917 | 84 | 283 | 0.0 | 1.0 | 0.00 | 0.00 | 0.00 | 22 | 1008.3 |
| 20260509145916 | 82 | 0.0 | 0.0 | 0.00 | 0.00 | 0.00 | 23 | 1008.3 | |
| 20260509144917 | 81 | 0.0 | 0.0 | 0.00 | 0.00 | 0.00 | 23 | 1008.2 | |
| 20260509143917 | 80 | 0.0 | 0.0 | 0.00 | 0.00 | 0.00 | 23 | 1008.2 | |
| 20260509142917 | 78 | 208 | 0.0 | 0.0 | 0.00 | 0.00 | 0.00 | 25 | 1008.2 |
| 20260509141916 | 76 | 0.0 | 0.0 | 0.00 | 0.00 | 0.00 | 27 | 1008.1 | |
| 20260509140917 | 76 | 0.0 | 0.0 | 0.00 | 0.00 | 0.00 | 27 | 1008.1 | |
| 20260509135917 | 73 | 158 | 0.0 | 0.0 | 0.00 | 0.00 | 0.00 | 28 | 1008.0 |
| 20260509134916 | 72 | 139 | 0.0 | 1.0 | 0.00 | 0.00 | 0.00 | 32 | 1008.0 |
| 20260509133917 | 71 | 0.0 | 0.0 | 0.00 | 0.00 | 0.00 | 34 | 1008.0 | |
| 20260509132917 | 69 | 115 | 0.0 | 0.0 | 0.00 | 0.00 | 0.00 | 35 | 1007.9 |
| 20260509131918 | 69 | 0.0 | 0.0 | 0.00 | 0.00 | 0.00 | 35 | 1007.9 | |
| 20260509130917 | 68 | 106 | 0.0 | 0.0 | 0.00 | 0.00 | 0.00 | 38 | 1007.7 |
| 20260509125917 | 68 | 0.0 | 0.0 | 0.00 | 0.00 | 0.00 | 38 | 1007.7 | |
| 20260509124916 | 67 | 115 | 0.0 | 0.0 | 0.00 | 0.00 | 0.00 | 38 | 1007.6 |
| 20260509123917 | 67 | 107 | 0.0 | 1.0 | 0.00 | 0.00 | 0.00 | 39 | 1007.6 |
| 20260509122917 | 68 | 0.0 | 0.0 | 0.00 | 0.00 | 0.00 | 38 | 1007.4 | |
| 20260509121917 | 68 | 0.0 | 0.0 | 0.00 | 0.00 | 0.00 | 37 | 1007.3 | |
| 20260509120917 | 68 | 0.0 | 0.0 | 0.00 | 0.00 | 0.00 | 39 | 1007.3 | |
| 20260509115916 | 69 | 71 | 2.0 | 2.0 | 0.00 | 0.00 | 0.00 | 40 | 1007.2 |
| 20260509114917 | 69 | 0.0 | 0.0 | 0.00 | 0.00 | 0.00 | 37 | 1007.2 | |
| 20260509113917 | 70 | 0.0 | 0.0 | 0.00 | 0.00 | 0.00 | 34 | 1007.2 | |
| 20260509112917 | 70 | 0.0 | 0.0 | 0.00 | 0.00 | 0.00 | 33 | 1007.2 | |
| 20260509111916 | 71 | 0.0 | 0.0 | 0.00 | 0.00 | 0.00 | 31 | 1007.1 | |
| 20260509110917 | 70 | 0.0 | 0.0 | 0.00 | 0.00 | 0.00 | 31 | 1007.1 | |
| 20260509105916 | 71 | 193 | 1.0 | 1.0 | 0.00 | 0.00 | 0.00 | 29 | 1007.1 |
| 20260509104917 | 71 | 237 | 1.0 | 2.0 | 0.00 | 0.00 | 0.00 | 29 | 1007.1 |
| 20260509103916 | 70 | 208 | 2.0 | 2.0 | 0.00 | 0.00 | 0.00 | 30 | 1007.0 |
| 20260509102916 | 71 | 189 | 1.0 | 2.0 | 0.00 | 0.00 | 0.00 | 30 | 1007.1 |
| 20260509101917 | 71 | 0.0 | 0.0 | 0.00 | 0.00 | 0.00 | 31 | 1007.0 | |
| 20260509100917 | 71 | 206 | 2.0 | 3.0 | 0.00 | 0.00 | 0.00 | 32 | 1007.1 |
| 20260509095917 | 71 | 205 | 2.0 | 2.0 | 0.00 | 0.00 | 0.00 | 33 | 1007.0 |
| 20260509095416 | 71 | 199 | 3.0 | 4.0 | 0.00 | 0.00 | 0.00 | 34 | 1007.0 |
| 20260509094416 | 71 | 208 | 2.0 | 2.0 | 0.00 | 0.00 | 0.00 | 34 | 1007.0 |
| 20260509093416 | 71 | 190 | 3.0 | 4.0 | 0.00 | 0.00 | 0.00 | 36 | 1007.0 |
| 20260509092417 | 71 | 180 | 3.0 | 4.0 | 0.00 | 0.00 | 0.00 | 36 | 1007.1 |
| 20260509091416 | 71 | 190 | 1.0 | 2.0 | 0.00 | 0.00 | 0.00 | 36 | 1007.1 |
| 20260509090416 | 72 | 176 | 3.0 | 4.0 | 0.00 | 0.00 | 0.00 | 36 | 1007.2 |
| 20260509085417 | 72 | 188 | 3.0 | 4.0 | 0.00 | 0.00 | 0.00 | 35 | 1007.3 |
| 20260509084417 | 73 | 180 | 5.0 | 6.0 | 0.00 | 0.00 | 0.00 | 34 | 1007.4 |
| 20260509083416 | 73 | 174 | 3.0 | 4.0 | 0.00 | 0.00 | 0.00 | 35 | 1007.4 |
| 20260509082416 | 74 | 172 | 2.0 | 3.0 | 0.00 | 0.00 | 0.00 | 35 | 1007.5 |
| 20260509081417 | 74 | 178 | 4.0 | 5.0 | 0.00 | 0.00 | 0.00 | 35 | 1007.6 |
| 20260509080416 | 73 | 194 | 4.0 | 4.0 | 0.00 | 0.00 | 0.00 | 36 | 1007.6 |
| 20260509075417 | 75 | 197 | 3.0 | 4.0 | 0.00 | 0.00 | 0.00 | 35 | 1007.7 |
| 20260509075017 | 75 | 214 | 3.0 | 4.0 | 0.00 | 0.00 | 0.00 | 35 | 1007.7 |
| 20260509074016 | 77 | 212 | 3.0 | 4.0 | 0.00 | 0.00 | 0.00 | 34 | 1007.8 |
| 20260509073017 | 77 | 219 | 2.0 | 4.0 | 0.00 | 0.00 | 0.00 | 33 | 1007.8 |
| 20260509071918 | 78 | 226 | 4.0 | 5.0 | 0.00 | 0.00 | 0.00 | 32 | 1008.0 |
| 20260509070917 | 80 | 235 | 5.0 | 6.0 | 0.00 | 0.00 | 0.00 | 29 | 1008.0 |
| 20260509065916 | 80 | 238 | 5.0 | 6.0 | 0.00 | 0.00 | 0.00 | 29 | 1007.9 |
| 20260509064917 | 79 | 221 | 3.0 | 4.0 | 0.00 | 0.00 | 0.00 | 30 | 1008.0 |
| 20260509063916 | 79 | 258 | 3.0 | 4.0 | 0.00 | 0.00 | 0.00 | 31 | 1008.1 |
| 20260509062917 | 79 | 223 | 3.0 | 4.0 | 0.00 | 0.00 | 0.00 | 31 | 1008.1 |
| 20260509061917 | 80 | 231 | 3.0 | 4.0 | 0.00 | 0.00 | 0.00 | 30 | 1008.2 |
| 20260509060916 | 81 | 240 | 4.0 | 6.0 | 0.00 | 0.00 | 0.00 | 29 | 1008.1 |
| 20260509055917 | 81 | 241 | 3.0 | 4.0 | 0.00 | 0.00 | 0.00 | 28 | 1008.0 |
| 20260509054917 | 81 | 249 | 5.0 | 6.0 | 0.00 | 0.00 | 0.00 | 28 | 1008.0 |